Time,TemperatureF,DewpointF,PressureIn,WindDirection,WindDirectionDegrees,WindSpeedMPH,WindSpeedGustMPH,Humidity,HourlyPrecipIn,Conditions,Clouds,dailyrainin,SolarRadiationWatts/m^2,SoftwareType,DateUTC
2013-04-01 00:00:00,39.0,26.0,-100.00,WNW,292,9.0,-999.0,59,-99.99,,,-99.99,0.000000,,2013-04-01 04:00:00,
2013-04-01 00:44:00,39.0,26.0,-100.00,WNW,292,9.0,-999.0,59,-99.99,,,-99.99,0.000000,,2013-04-01 04:44:00,
2013-04-01 00:53:00,39.0,26.0,-100.00,WNW,292,9.0,-999.0,59,-99.99,,,-99.99,0.000000,,2013-04-01 04:53:00,
2013-04-01 01:00:00,38.0,29.0,-100.00,West,270,10.0,-999.0,70,-99.99,,,-99.99,0.000000,,2013-04-01 05:00:00,
2013-04-01 01:43:00,38.0,29.0,-100.00,West,270,10.0,-999.0,70,-99.99,,,-99.99,0.000000,,2013-04-01 05:43:00,
2013-04-01 01:53:00,38.0,29.0,-100.00,West,270,10.0,-999.0,70,-99.99,,,-99.99,0.000000,,2013-04-01 05:53:00,
2013-04-01 02:00:00,35.0,28.0,-100.00,WNW,292,9.0,-999.0,76,-99.99,,,-99.99,0.000000,,2013-04-01 06:00:00,
2013-04-01 02:43:00,35.0,28.0,-100.00,WNW,292,9.0,-999.0,76,-99.99,,,-99.99,0.000000,,2013-04-01 06:43:00,
2013-04-01 02:53:00,35.0,28.0,-100.00,WNW,292,9.0,-999.0,76,-99.99,,,-99.99,0.000000,,2013-04-01 06:53:00,
2013-04-01 03:00:00,34.0,29.0,-100.00,WNW,292,7.0,-999.0,82,-99.99,,,-99.99,0.000000,,2013-04-01 07:00:00,
2013-04-01 03:43:00,34.0,29.0,-100.00,WNW,292,7.0,-999.0,82,-99.99,,,-99.99,0.000000,,2013-04-01 07:43:00,
2013-04-01 03:53:00,34.0,29.0,-100.00,WNW,292,7.0,-999.0,82,-99.99,,,-99.99,0.000000,,2013-04-01 07:53:00,
2013-04-01 04:00:00,33.0,26.0,-100.00,WNW,292,6.0,-999.0,75,-99.99,,,-99.99,0.000000,,2013-04-01 08:00:00,
2013-04-01 04:43:00,33.0,26.0,-100.00,WNW,292,6.0,-999.0,75,-99.99,,,-99.99,0.000000,,2013-04-01 08:43:00,
2013-04-01 04:53:00,33.0,26.0,-100.00,WNW,292,6.0,-999.0,75,-99.99,,,-99.99,0.000000,,2013-04-01 08:53:00,
2013-04-01 05:00:00,31.0,21.0,-100.00,West,270,5.0,-999.0,65,-99.99,,,-99.99,0.000000,,2013-04-01 09:00:00,
2013-04-01 05:43:00,31.0,21.0,-100.00,West,270,5.0,-999.0,65,-99.99,,,-99.99,0.000000,,2013-04-01 09:43:00,
2013-04-01 05:54:00,31.0,21.0,-100.00,West,270,5.0,-999.0,65,-99.99,,,-99.99,0.000000,,2013-04-01 09:54:00,
2013-04-01 06:00:00,30.0,18.0,-100.00,WNW,292,4.0,-999.0,60,-99.99,,,-99.99,0.000000,,2013-04-01 10:00:00,
2013-04-01 06:43:00,30.0,18.0,-100.00,WNW,292,4.0,-999.0,60,-99.99,,,-99.99,0.000000,,2013-04-01 10:43:00,
2013-04-01 06:53:00,30.0,18.0,-100.00,WNW,292,4.0,-999.0,60,-99.99,,,-99.99,0.000000,,2013-04-01 10:53:00,
2013-04-01 08:00:00,28.0,18.0,-100.00,WNW,292,4.0,-999.0,65,-99.99,,,-99.99,15.080000,,2013-04-01 12:00:00,
2013-04-01 08:53:00,28.0,18.0,-100.00,WNW,292,4.0,-999.0,65,-99.99,,,-99.99,15.080000,,2013-04-01 12:53:00,
2013-04-01 09:00:00,31.0,19.0,-100.00,WNW,292,6.0,-999.0,60,-99.99,,,-99.99,151.960007,,2013-04-01 13:00:00,
2013-04-01 09:43:00,31.0,19.0,-100.00,WNW,292,6.0,-999.0,60,-99.99,,,-99.99,151.960007,,2013-04-01 13:43:00,
2013-04-01 09:53:00,31.0,19.0,-100.00,WNW,292,6.0,-999.0,60,-99.99,,,-99.99,151.960007,,2013-04-01 13:53:00,
2013-04-01 10:00:00,32.0,15.0,-100.00,WNW,292,10.0,-999.0,48,-99.99,,,-99.99,281.880005,,2013-04-01 14:00:00,
2013-04-01 10:43:00,32.0,15.0,-100.00,WNW,292,10.0,-999.0,48,-99.99,,,-99.99,281.880005,,2013-04-01 14:43:00,
2013-04-01 10:53:00,32.0,15.0,-100.00,WNW,292,10.0,-999.0,48,-99.99,,,-99.99,281.880005,,2013-04-01 14:53:00,
2013-04-01 11:00:00,34.0,14.0,-100.00,West,270,10.0,-999.0,42,-99.99,,,-99.99,439.640015,,2013-04-01 15:00:00,
2013-04-01 11:44:00,34.0,14.0,-100.00,West,270,10.0,-999.0,42,-99.99,,,-99.99,439.640015,,2013-04-01 15:44:00,
2013-04-01 11:54:00,34.0,14.0,-100.00,West,270,10.0,-999.0,42,-99.99,,,-99.99,439.640015,,2013-04-01 15:54:00,
2013-04-01 13:00:00,34.0,15.0,-100.00,West,270,10.0,-999.0,45,-99.99,,,-99.99,547.520020,,2013-04-01 17:00:00,
2013-04-01 13:42:00,34.0,15.0,-100.00,West,270,10.0,-999.0,45,-99.99,,,-99.99,547.520020,,2013-04-01 17:42:00,
2013-04-01 13:53:00,34.0,15.0,-100.00,West,270,10.0,-999.0,45,-99.99,,,-99.99,547.520020,,2013-04-01 17:53:00,
2013-04-01 14:00:00,36.0,14.0,-100.00,WNW,292,11.0,-999.0,41,-99.99,,,-99.99,573.039978,,2013-04-01 18:00:00,
2013-04-01 14:43:00,36.0,14.0,-100.00,WNW,292,11.0,-999.0,41,-99.99,,,-99.99,573.039978,,2013-04-01 18:43:00,
2013-04-01 14:54:00,36.0,14.0,-100.00,WNW,292,11.0,-999.0,41,-99.99,,,-99.99,573.039978,,2013-04-01 18:54:00,
2013-04-01 15:00:00,35.0,14.0,-100.00,West,270,11.0,-999.0,40,-99.99,,,-99.99,563.760010,,2013-04-01 19:00:00,
2013-04-01 15:43:00,35.0,14.0,-100.00,West,270,11.0,-999.0,40,-99.99,,,-99.99,563.760010,,2013-04-01 19:43:00,
2013-04-01 15:53:00,35.0,14.0,-100.00,West,270,11.0,-999.0,40,-99.99,,,-99.99,563.760010,,2013-04-01 19:53:00,
2013-04-01 16:00:00,34.0,13.0,-100.00,WSW,247,12.0,-999.0,40,-99.99,,,-99.99,538.239990,,2013-04-01 20:00:00,
2013-04-01 16:43:00,34.0,13.0,-100.00,WSW,247,12.0,-999.0,40,-99.99,,,-99.99,538.239990,,2013-04-01 20:43:00,
2013-04-01 16:52:00,34.0,13.0,-100.00,WSW,247,12.0,-999.0,40,-99.99,,,-99.99,538.239990,,2013-04-01 20:52:00,
2013-04-01 17:00:00,34.0,12.0,-100.00,WNW,292,12.0,-999.0,39,-99.99,,,-99.99,467.480011,,2013-04-01 21:00:00,
2013-04-01 17:44:00,34.0,12.0,-100.00,WNW,292,12.0,-999.0,39,-99.99,,,-99.99,467.480011,,2013-04-01 21:44:00,
2013-04-01 17:53:00,34.0,12.0,-100.00,WNW,292,12.0,-999.0,39,-99.99,,,-99.99,467.480011,,2013-04-01 21:53:00,
2013-04-01 18:00:00,34.0,12.0,-100.00,West,270,11.0,-999.0,39,-99.99,,,-99.99,396.720001,,2013-04-01 22:00:00,
2013-04-01 18:43:00,34.0,12.0,-100.00,West,270,11.0,-999.0,39,-99.99,,,-99.99,396.720001,,2013-04-01 22:43:00,
2013-04-01 18:52:00,34.0,12.0,-100.00,West,270,11.0,-999.0,39,-99.99,,,-99.99,396.720001,,2013-04-01 22:52:00,
2013-04-01 19:00:00,34.0,12.0,-100.00,WNW,292,10.0,-999.0,40,-99.99,,,-99.99,223.880005,,2013-04-01 23:00:00,
2013-04-01 19:43:00,34.0,12.0,-100.00,WNW,292,10.0,-999.0,40,-99.99,,,-99.99,223.880005,,2013-04-01 23:43:00,
2013-04-01 19:53:00,34.0,12.0,-100.00,WNW,292,10.0,-999.0,40,-99.99,,,-99.99,223.880005,,2013-04-01 23:53:00,
2013-04-01 20:00:00,31.0,13.0,-100.00,WNW,292,8.0,-999.0,45,-99.99,,,-99.99,41.759998,,2013-04-02 00:00:00,
2013-04-01 20:43:00,31.0,13.0,-100.00,WNW,292,8.0,-999.0,45,-99.99,,,-99.99,41.759998,,2013-04-02 00:43:00,
2013-04-01 20:53:00,31.0,13.0,-100.00,WNW,292,8.0,-999.0,45,-99.99,,,-99.99,41.759998,,2013-04-02 00:53:00,
2013-04-01 21:00:00,29.0,13.0,-100.00,WNW,292,4.0,-999.0,51,-99.99,,,-99.99,1.160000,,2013-04-02 01:00:00,
2013-04-01 21:43:00,29.0,13.0,-100.00,WNW,292,4.0,-999.0,51,-99.99,,,-99.99,1.160000,,2013-04-02 01:43:00,
2013-04-01 21:53:00,29.0,13.0,-100.00,WNW,292,4.0,-999.0,51,-99.99,,,-99.99,1.160000,,2013-04-02 01:53:00,
2013-04-01 22:00:00,27.0,14.0,-100.00,West,270,1.0,-999.0,56,-99.99,,,-99.99,0.000000,,2013-04-02 02:00:00,
2013-04-01 22:43:00,27.0,14.0,-100.00,West,270,1.0,-999.0,56,-99.99,,,-99.99,0.000000,,2013-04-02 02:43:00,
2013-04-01 22:53:00,27.0,14.0,-100.00,West,270,1.0,-999.0,56,-99.99,,,-99.99,0.000000,,2013-04-02 02:53:00,
2013-04-01 23:00:00,24.0,14.0,-100.00,SW,225,0.0,-999.0,64,-99.99,,,-99.99,0.000000,,2013-04-02 03:00:00,
2013-04-01 23:43:00,24.0,14.0,-100.00,SW,225,0.0,-999.0,64,-99.99,,,-99.99,0.000000,,2013-04-02 03:43:00,
2013-04-01 23:53:00,24.0,14.0,-100.00,SW,225,0.0,-999.0,64,-99.99,,,-99.99,0.000000,,2013-04-02 03:53:00,